Location: Laguna Hills Mobile Home Estates
(33.6231°N, 117.7214°W)
Time: 10:05:16
(UTC+00:00)

Daily predictions for brighter satellites

Satellite Brightness Start Highest point End
(mag) Time Altitude Azimuth Time Altitude Azimuth Time Altitude Azimuth
Cosmos 1844 Rocket 3.6 12:30:40 10° S 12:35:58 46° ESE 12:41:16 10° NE
Cosmos 1092 Rocket 3.8 12:35:07 42° N 12:37:24 84° W 12:43:31 10° S
NOSS 3-2 (A) 4.0 12:34:23 10° S 12:39:45 52° ESE 12:45:38 10° NE
STARLINK 1039 4.4 12:44:42 40° SE 12:44:42 40° SE 12:47:10 10° SE
Okean O Rocket 3.8 12:41:17 10° NE 12:44:59 26° E 12:48:42 10° SSE
Cosmos 371 Rocket 3.3 12:40:30 10° S 12:45:18 78° ESE 12:50:11 10° NNE
STARLINK 1045 4.3 12:47:06 41° SSE 12:47:06 41° SSE 12:49:39 10° SE
Cosmos 1110 Rocket 4.0 12:42:05 10° SSW 12:47:15 81° ESE 12:52:26 10° NNE
Okean 1-7 3.6 12:48:35 46° SSW 12:48:35 46° SSW 12:51:42 10° S
H-2A R/B 2.4 12:47:42 37° S 12:47:59 37° S 12:55:29 10° ESE
PSLV R/B 4.0 12:44:50 10° NNE 12:48:58 74° ESE 12:53:02 10° S
CENTAUR R/B 4.4 12:45:41 10° SSE 12:50:20 27° ESE 12:55:28 10° NE
ALOS 3.1 12:47:31 10° NNE 12:52:05 50° E 12:56:35 10° S
USA 238 DEB 3.7 12:45:33 10° SSW 12:52:10 80° ESE 12:58:58 10° NNE
USA 238 3.7 12:45:40 10° SSW 12:52:16 79° ESE 12:59:04 10° NNE
SJ-12 4.4 12:48:53 10° NNE 12:52:57 60° E 12:56:57 10° S
SKYMED 2 4.3 12:52:25 10° SSE 12:56:37 52° ENE 13:00:16 13° N
Hubble Space Telescope 2.6 13:00:54 19° SSW 13:02:42 25° SSE 13:06:08 10° ESE
Cosmos 1943 3.4 13:03:22 43° WNW 13:04:18 47° WSW 13:09:39 10° S
Cosmos 1428 Rocket 4.4 13:03:15 10° N 13:09:33 75° W 13:15:49 10° S
Okean 3 3.8 13:09:55 10° N 13:14:06 65° E 13:18:17 10° SSE
STARLINK 1050 4.3 13:16:15 31° SW 13:16:15 31° SW 13:19:20 10° SSE
Cosmos 2180 Rocket 4.4 13:12:24 10° S 13:18:32 82° W 13:24:43 10° N
STARLINK 1055 4.4 13:19:41 28° SW 13:19:41 28° SW 13:22:49 10° S
Meteor 1-18 Rocket 4.4 13:18:37 18° NNW 13:22:34 47° W 13:27:55 10° SSW
Cosmos 1741 Rocket 4.2 13:24:08 22° NW 13:27:16 49° WSW 13:32:17 10° S
GEOS 3 Rocket 4.4 13:24:30 10° SE 13:29:22 48° NE 13:34:16 10° NNW
Cosmos 44 Rocket 3.2 13:25:35 10° SSW 13:30:30 78° WNW 13:35:21 10° NNE
Cosmos 2026 Rocket 4.3 13:24:45 10° NNW 13:30:33 42° W 13:36:25 10° SSW
Cosmos 2279 Rocket 4.2 13:30:57 10° SSW 13:36:48 44° W 13:42:42 10° N
Helios 1A Rocket 2.7 13:33:05 10° N 13:37:07 80° WNW 13:41:08 10° SSW
Cosmos 1666 3.9 13:33:30 10° SSE 13:37:08 44° E 13:40:45 10° NNE
Cosmos 304 Rocket 3.6 13:33:21 10° SSW 13:38:06 71° WNW 13:42:53 10° NNE
FALCON 9 R/B 4.1 13:32:10 20° W 13:38:15 88° S 14:11:10 10° ESE
ATLAS 3B R/B 3.4 13:32:18 10° S 13:38:54 55° ESE 13:45:23 10° NE
Meteor 1-11 Rocket 3.7 13:33:31 10° S 13:39:15 84° W 13:45:10 10° N
PAYLOAD B 4.2 13:34:08 10° N 13:39:33 58° WNW 13:44:59 10° SSW
Cosmos 405 3.2 13:38:18 10° N 13:41:50 72° E 13:45:18 10° SSE
Cosmos 1302 Rocket 4.0 13:36:48 10° SSW 13:42:02 68° WNW 13:47:19 10° N
USA 234 4.1 13:36:48 10° NNE 13:42:13 29° NNW 13:46:24 15° W
PSLV R/B 2.9 13:42:09 33° WSW 13:42:49 45° SSW 13:45:06 10° SE
Meteor 1-5 Rocket 4.3 13:37:14 10° SSW 13:43:06 63° W 13:48:53 10° N
NOSS 3-2 (C) 3.2 13:37:32 10° SW 13:43:08 79° WNW 13:49:22 10° NNE
COSMO-SKYMED 1 3.0 13:40:34 10° SSW 13:44:37 39° W 13:48:42 10° NNW
Cosmos 2278 Rocket 3.5 13:45:06 10° S 13:50:26 44° ESE 13:55:47 10° NE
Cosmos 1733 Rocket 3.6 13:50:36 10° SW 13:54:29 33° W 13:58:25 10° NNW
Meteor 2-4 Rocket 3.7 13:50:08 10° NNW 13:55:22 52° W 14:00:31 10° S
GPS 2-04 Rocket1 2.7 13:58:08 14° W 14:01:26 64° N 14:05:28 10° E
SL-24 R/B 4.0 13:58:48 10° S 14:03:13 81° WSW 14:07:27 10° NNW
NOAA 6 4.4 13:58:55 10° N 14:03:45 42° WNW 14:08:34 10° SW
FENGYUN 3A 4.4 14:03:46 10° N 14:08:20 29° WNW 14:12:53 10° SW
SMAP 3.0 14:11:54 10° N 14:16:34 81° WNW 14:21:12 10° SSW
ERBS 3.0 14:13:41 10° SSW 14:16:56 58° SE 14:20:11 10° NE
Cosmos 1743 3.4 14:13:41 10° S 14:17:24 58° E 14:21:09 10° NNE
Cosmos 1992 Rocket 4.0 14:12:35 10° SSW 14:17:47 87° WNW 14:23:00 10° NNE
Cosmos 1844 Rocket 3.8 14:15:58 10° WSW 14:20:03 20° WNW 14:24:09 10° N
H-2A R/B 2.7 14:16:57 10° N 14:20:41 60° WNW 14:24:26 10° SSW
Okean O Rocket 2.7 14:17:45 10° NNW 14:21:10 22° WNW 14:24:36 10° WSW
ATLAS CENTAUR R/B 1.7 14:22:07 10° NNW 14:26:06 59° ENE 14:29:47 10° SE
